Flag for Romania Weather past 2 weeks in Bucharest, Romania

Now
55 °F

Broken clouds.


Feels Like: 51 °F
Forecast: 47 / 56 °F
Wind: 17 mph from Northeast

Location: Bucharest / Imh


UV Index: 0 (Low)

Visibility: N/A


Pressure: 29.89 "Hg

Humidity: 77%

Dew point: 48 °F

Location of BucharestLocation

Historic Weather in Bucharest

°F

Bucharest temperature yesterday

Maximum temperature yesterday: 46 °F (at 6:30 PM)
Minimum temperature yesterday: 43 °F (at 7:30 AM)
Average temperature yesterday: 45 °F

Past Weeks' High & Low Weather Summary

 TemperatureHumidityPressure
High75 °F (Apr 4, 5:00 PM)100% (Apr 6, 8:00 AM)30.18 "Hg (Apr 6, 8:00 AM)
Low39 °F (Apr 6, 12:30 AM)24% (Apr 9, 4:00 PM)29.74 "Hg (Apr 15, 5:00 AM)
Average51 °F75%29.96 "Hg
* Reported Apr 2 3:00 PM — Apr 17 3:30 PM, Bucharest, Weather by CustomWeather, © 2014

Note: Actual official high and low records may vary slightly from our data, if they occured in-between our weather recording intervals... More about our weather records

Advertising

Historic Weather Conditions — Data for Previous 24 hours

 ConditionsComfort  
Time TempWeatherWind HumidityBarometerVisibility
3:30 PM
Apr 17
57 °FScattered clouds.17 mph77%29.89 "HgN/A
3:00 PM55 °FPartly sunny.17 mph82%29.92 "HgN/A
2:30 PM55 °FPartly sunny.16 mph82%29.92 "HgN/A
2:00 PM54 °FPartly sunny.20 mph88%29.92 "HgN/A
1:30 PM52 °FSprinkles. Scattered clouds.20 mph88%29.95 "HgN/A
1:00 PM52 °FSprinkles. Partly sunny.16 mph94%29.95 "Hg4 mi
12:30 PM54 °FPartly sunny.22 mph82%29.95 "HgN/A
12:00 PM54 °FSprinkles. Partly sunny.22 mph82%29.95 "HgN/A
11:30 AM54 °FPartly sunny.20 mph82%29.95 "HgN/A
11:00 AM52 °FSprinkles. Partly sunny.16 mph82%29.95 "HgN/A
10:30 AM52 °FPartly sunny.20 mph82%29.95 "HgN/A
10:00 AM50 °FPartly sunny.16 mph88%29.95 "HgN/A
9:30 AM50 °FPartly sunny.15 mph88%29.95 "HgN/A
9:00 AM50 °FPartly sunny.16 mph88%29.95 "HgN/A
8:30 AM48 °FPartly sunny.18 mph87%29.95 "HgN/A
8:00 AM48 °FPartly sunny.21 mph87%29.95 "HgN/A
7:30 AM46 °FPartly sunny.21 mph93%29.92 "HgN/A
7:00 AM46 °FPassing clouds.21 mph93%29.92 "HgN/A
6:30 AM46 °FLow clouds.23 mph93%29.92 "HgN/A
6:00 AM46 °FLow clouds.21 mph93%29.92 "HgN/A
5:30 AM46 °FPassing clouds.20 mph93%29.89 "HgN/A
5:00 AM46 °FPassing clouds.17 mph93%29.92 "HgN/A
4:30 AM46 °FOvercast.17 mph93%29.92 "HgN/A
4:00 AM46 °FPassing clouds.16 mph93%29.92 "HgN/A
3:30 AM46 °FOvercast.17 mph93%29.92 "HgN/A
3:00 AM46 °FPassing clouds.20 mph93%29.92 "HgN/A
2:30 AM46 °FPassing clouds.20 mph93%29.92 "HgN/A
2:00 AM46 °FPassing clouds.20 mph93%29.95 "HgN/A
1:30 AM46 °FPassing clouds.21 mph87%29.95 "HgN/A
1:00 AM46 °FOvercast.20 mph87%29.95 "HgN/A
12:30 AM46 °FOvercast.18 mph87%29.92 "HgN/A
12:00 AM46 °FOvercast.20 mph87%29.92 "HgN/A
11:30 PM
Apr 16
46 °FPassing clouds.22 mph87%29.92 "HgN/A
11:00 PM46 °FOvercast.17 mph87%29.92 "HgN/A
10:30 PM46 °FOvercast.20 mph87%29.92 "HgN/A
10:00 PM46 °FLight rain. Overcast.18 mph87%29.92 "HgN/A
9:30 PM46 °FLight rain. Overcast.18 mph87%29.92 "HgN/A
9:00 PM46 °FOvercast.15 mph82%29.92 "HgN/A
8:30 PM46 °FLight rain. Overcast.15 mph87%29.89 "HgN/A
8:00 PM46 °FLight rain. Partly sunny.17 mph82%29.89 "HgN/A
7:30 PM46 °FLight rain. Mostly cloudy.17 mph82%29.89 "HgN/A
7:00 PM46 °FLight rain. Partly sunny.17 mph82%29.89 "HgN/A
6:30 PM46 °FOvercast.16 mph82%29.89 "HgN/A
6:00 PM45 °FOvercast.20 mph93%29.89 "HgN/A
5:30 PM45 °FOvercast.18 mph93%29.89 "HgN/A
5:00 PM45 °FPartly sunny.17 mph93%29.89 "HgN/A
4:30 PM45 °FLight rain. Overcast.17 mph93%29.89 "HgN/A
4:00 PM45 °FLight rain. Overcast.17 mph93%29.89 "HgN/A
Weather by CustomWeather, © 2014

See weather overview